1507561200.07,33962,12.94,73128.8,-7.57,-9.67,-9.61,0,*5E
1507561201.28,33963,12.94,73126.5,-7.57,-9.89,-9.67,0,*59
1507561202.53,33964,12.94,73118.5,-7.57,-9.79,-9.61,0,*57
1507561203.75,33965,12.94,73112.5,-7.57,-9.75,-9.75,0,*5F
1507561204.97,33966,12.94,73114.8,-7.57,-9.93,-9.89,0,*57
1507561206.18,33967,12.94,73106.0,-7.61,-9.93,-9.93,0,*58
1507561207.37,33968,12.94,73104.8,-7.59,-9.89,-9.75,0,*5F
1507561208.56,33969,12.94,73108.8,-7.59,-9.89,-9.79,0,*52
1507561209.76,33970,12.94,73106.5,-7.59,-10.01,-9.89,0,*6D
1507561210.96,33971,12.94,73116.8,-7.59,-9.79,-9.75,0,*58
1507561212.18,33972,12.94,73120.8,-7.61,-10.05,-9.93,0,*6B
1507561213.4,33973,12.94,73124.3,-7.61,-10.09,-9.97,0,*62
1507561214.61,33974,12.94,73124.3,-7.59,-10.05,-10.01,0,*55
1507561215.83,33975,12.94,73110.3,-7.61,-10.09,-10.09,0,*5B
1507561217.05,33976,12.94,73092.3,-7.61,-10.05,-10.05,0,*58
1507561218.27,33977,12.94,73092.3,-7.61,-10.09,-10.09,0,*59
1507561219.49,33978,12.94,73098.5,-7.61,-10.09,-10.05,0,*5A
1507561220.71,33979,12.94,73094.0,-7.61,-10.05,-9.97,0,*64
1507561221.93,33980,12.94,73090.8,-7.61,-10.09,-9.93,0,*6A
1507561223.14,33981,12.94,73098.0,-7.65,-9.97,-9.97,0,*54
1507561224.36,33982,12.94,73088.8,-7.67,-10.15,-10.15,0,*55
1507561225.59,33983,12.94,73090.3,-7.65,-10.19,-10.05,0,*5B
1507561226.83,33984,12.94,73082.5,-7.65,-10.19,-10.09,0,*50
1507561228.05,33985,12.94,73074.8,-7.67,-10.27,-10.15,0,*53
1507561229.26,33986,12.94,73088.3,-7.67,-10.15,-10.09,0,*5C
1507561230.46,33987,12.94,73096.8,-7.67,-10.15,-9.97,0,*62
1507561231.66,33988,12.94,73092.8,-7.67,-10.09,-9.97,0,*60
1507561232.88,33989,12.94,73088.8,-7.65,-9.93,-9.93,0,*5C
1507561234.08,33990,12.94,73088.3,-7.67,-10.01,-9.89,0,*6E
1507561235.29,33991,12.94,73076.3,-7.67,-10.09,-10.01,0,*5F
1507561236.51,33992,12.94,73086.8,-7.67,-10.15,-10.01,0,*51
1507561237.72,33993,12.94,73082.3,-7.67,-10.01,-10.01,0,*55
1507561238.92,33994,12.94,73076.5,-7.67,-10.09,-10.09,0,*52
1507561240.12,33995,12.94,73082.0,-7.67,-10.01,-9.97,0,*64
1507561241.34,33996,12.94,73084.3,-7.65,-9.97,-9.93,0,*56
1507561242.58,33997,12.94,73090.3,-7.65,-9.93,-9.83,0,*52
1507561243.79,33998,12.94,73086.8,-7.65,-9.93,-9.79,0,*58
1507561245.02,33999,12.94,73082.5,-7.69,-9.75,-9.71,0,*55
1507561246.26,34000,12.94,73082.0,-7.69,-9.83,-9.71,0,*52
1507561247.48,34001,12.94,73082.3,-7.67,-9.83,-9.71,0,*5D
1507561248.68,34002,12.94,73100.8,-7.67,-9.75,-9.71,0,*57
1507561249.9,34003,12.94,73100.0,-7.67,-9.75,-9.61,0,*57
1507561251.13,34004,12.94,73106.3,-7.67,-9.75,-9.61,0,*50
1507561252.36,34005,12.94,73106.5,-7.69,-9.71,-9.71,0,*5A
1507561253.6,34006,12.94,73108.0,-7.69,-9.71,-9.57,0,*5D
1507561254.87,34007,12.94,73112.3,-7.69,-9.61,-9.61,0,*58
1507561256.12,34008,12.94,73108.0,-7.69,-9.75,-9.61,0,*52
1507561257.34,34009,12.94,73104.0,-7.67,-9.75,-9.61,0,*5D
1507561258.57,34010,12.94,73102.0,-7.67,-9.71,-9.57,0,*54
1507561259.79,34011,12.94,73096.5,-7.67,-9.71,-9.57,0,*55
1507561261.01,34012,12.94,73102.8,-7.67,-9.71,-9.57,0,*56
1507561262.26,34013,12.94,73104.5,-7.67,-9.61,-9.57,0,*56
1507561263.52,34014,12.94,73106.8,-7.69,-9.61,-9.57,0,*5F
1507561264.76,34015,12.94,73110.0,-7.67,-9.61,-9.61,0,*55
1507561265.99,34016,12.94,73112.0,-7.67,-9.71,-9.61,0,*57
1507561267.21,34017,12.94,73102.5,-7.67,-9.83,-9.71,0,*5A
1507561268.44,34018,12.94,73104.3,-7.69,-9.75,-9.75,0,*56
1507561269.64,34019,12.94,73104.8,-7.67,-9.75,-9.75,0,*59
1507561270.88,34020,12.94,73104.5,-7.69,-9.75,-9.61,0,*58
1507561272.13,34021,13.0,73104.5,-7.69,-9.75,-9.61,0,*59
1507561273.35,34022,12.94,73100.0,-7.71,-9.83,-9.71,0,*5B
1507561274.57,34023,12.94,73096.8,-7.69,-9.71,-9.75,0,*5A
1507561275.8,34024,12.94,73098.0,-7.69,-9.75,-9.75,0,*59
1507561277.02,34025,12.94,73090.0,-7.69,-9.75,-9.71,0,*5C
1507561278.26,34026,13.0,73096.3,-7.69,-9.75,-9.57,0,*5B
1507561279.49,34027,12.94,73096.8,-7.69,-9.71,-9.71,0,*5A
1507561280.72,34028,12.94,73102.0,-7.69,-9.75,-9.71,0,*51
1507561281.91,34029,12.94,73104.5,-7.71,-9.75,-9.75,0,*5D
1507561283.14,34030,12.94,73106.5,-7.69,-9.71,-9.71,0,*5C
1507561284.34,34031,12.94,73100.5,-7.71,-9.79,-9.67,0,*5B
1507561285.56,34032,12.94,73100.3,-7.69,-9.75,-9.71,0,*5A
1507561286.81,34033,12.94,73104.8,-7.69,-9.83,-9.71,0,*52
1507561288.03,34034,12.94,73104.8,-7.69,-9.75,-9.71,0,*5C
1507561289.28,34035,12.94,73104.5,-7.69,-9.71,-9.57,0,*5D
1507561290.55,34036,12.94,73110.8,-7.69,-9.61,-9.61,0,*5A
1507561291.77,34037,12.94,73100.3,-7.71,-9.75,-9.61,0,*57
1507561292.99,34038,12.94,73104.8,-7.71,-9.75,-9.61,0,*58
1507561294.25,34039,13.0,73112.3,-7.69,-9.61,-9.57,0,*50
1507561295.47,34040,12.94,73108.5,-7.71,-9.67,-9.61,0,*54
1507561296.67,34041,13.0,73112.8,-7.71,-9.67,-9.67,0,*53
1507561297.92,34042,12.94,73102.8,-7.69,-9.71,-9.49,0,*52
1507561299.17,34043,12.94,73110.8,-7.69,-9.71,-9.61,0,*59
1507561300.37,34044,12.94,73108.3,-7.71,-9.79,-9.67,0,*59
1507561301.61,34045,12.94,73110.3,-7.69,-9.71,-9.61,0,*5F
1507561302.87,34046,12.94,73108.5,-7.69,-9.57,-9.57,0,*5D
1507561304.12,34047,12.94,73104.0,-7.71,-9.61,-9.53,0,*54
1507561305.34,34048,12.94,73104.3,-7.71,-9.75,-9.53,0,*5E
1507561306.59,34049,13.0,73106.8,-7.71,-9.61,-9.61,0,*5B
1507561307.8,34050,12.94,73096.0,-7.71,-9.67,-9.57,0,*50
1507561309.07,34051,12.94,73096.0,-7.73,-9.61,-9.61,0,*50
1507561310.29,34052,12.94,73094.3,-7.71,-9.67,-9.61,0,*57
1507561311.51,34053,12.94,73092.0,-7.71,-9.67,-9.53,0,*57
1507561312.76,34054,12.94,73090.8,-7.69,-9.75,-9.61,0,*5B
1507561313.98,34055,12.94,73094.5,-7.71,-9.75,-9.61,0,*53
1507561315.18,34056,12.94,73098.5,-7.71,-9.75,-9.67,0,*56
1507561316.39,34057,12.94,73100.5,-7.71,-9.75,-9.57,0,*54
1507561317.61,34058,12.94,73104.5,-7.71,-9.75,-9.61,0,*5E
1507561318.88,34059,12.94,73098.0,-7.73,-9.61,-9.61,0,*58
1507561320.13,34060,12.94,73098.5,-7.73,-9.67,-9.61,0,*54
1507561321.37,34061,12.94,73094.3,-7.73,-9.67,-9.61,0,*55
1507561322.59,34062,12.94,73104.5,-7.71,-9.67,-9.61,0,*54
1507561323.79,34063,12.94,73100.5,-7.71,-9.67,-9.67,0,*53
1507561325.0,34064,12.94,73092.8,-7.71,-9.67,-9.61,0,*52
1507561326.2,34065,12.94,73098.0,-7.71,-9.67,-9.67,0,*55
1507561327.4,34066,12.94,73098.5,-7.71,-9.75,-9.67,0,*55
1507561328.62,34067,12.94,73100.8,-7.71,-9.67,-9.61,0,*51
1507561329.87,34068,12.94,73106.0,-7.73,-9.67,-9.53,0,*5D
1507561331.11,34069,12.94,73106.0,-7.73,-9.67,-9.61,0,*5D
1507561332.36,34070,12.94,73104.5,-7.73,-9.67,-9.61,0,*55
1507561333.6,34071,12.94,73100.5,-7.73,-9.67,-9.61,0,*54
1507561334.87,34072,12.94,73106.0,-7.73,-9.61,-9.61,0,*51
1507561336.14,34073,12.94,73102.8,-7.73,-9.61,-9.61,0,*50
1507561337.41,34074,12.94,73108.3,-7.73,-9.61,-9.53,0,*56
1507561338.65,34075,12.94,73108.5,-7.73,-9.67,-9.61,0,*50
1507561339.93,34076,12.94,73106.3,-7.73,-9.61,-9.53,0,*54
1507561341.2,34077,12.94,73110.0,-7.73,-9.61,-9.53,0,*55
1507561342.47,34078,12.94,73110.8,-7.73,-9.53,-9.53,0,*5B
1507561343.71,34079,12.94,73112.8,-7.75,-9.57,-9.49,0,*53
1507561344.98,34080,12.94,73114.0,-7.73,-9.53,-9.49,0,*57
1507561346.25,34081,12.94,73114.8,-7.73,-9.53,-9.49,0,*56
1507561347.47,34082,12.94,73116.5,-7.75,-9.67,-9.53,0,*5F
1507561348.72,34083,12.94,73118.8,-7.75,-9.53,-9.53,0,*59
1507561349.99,34084,12.94,73114.8,-7.73,-9.61,-9.49,0,*52
1507561351.26,34085,12.94,73114.3,-7.73,-9.49,-9.49,0,*59
1507561352.5,34086,12.94,73110.0,-7.75,-9.57,-9.49,0,*53
1507561353.75,34087,12.94,73120.5,-7.75,-9.53,-9.49,0,*56
1507561355.02,34088,12.94,73126.0,-7.73,-9.49,-9.45,0,*58
1507561356.26,34089,12.94,73118.5,-7.75,-9.57,-9.53,0,*57
1507561357.51,34090,12.94,73122.8,-7.75,-9.57,-9.53,0,*5F
1507561358.73,34091,12.94,73116.0,-7.75,-9.67,-9.53,0,*5D
1507561359.98,34092,12.94,73110.0,-7.75,-9.57,-9.53,0,*5D
1507561361.22,34093,12.94,73118.5,-7.75,-9.57,-9.53,0,*5C
1507561362.49,34094,12.94,73112.5,-7.73,-9.49,-9.49,0,*59
1507561363.74,34095,12.94,73116.3,-7.75,-9.57,-9.53,0,*5A
1507561364.96,34096,12.94,73122.3,-7.75,-9.67,-9.57,0,*5E
1507561366.16,34097,12.94,73122.5,-7.75,-9.67,-9.67,0,*5C
1507561367.37,34098,12.94,73120.3,-7.75,-9.67,-9.57,0,*50
1507561368.6,34099,12.94,73120.5,-7.75,-9.71,-9.53,0,*52
1507561369.84,34100,12.94,73118.0,-7.75,-9.57,-9.57,0,*53
1507561371.06,34101,12.94,73124.8,-7.75,-9.67,-9.57,0,*51
1507561372.27,34102,12.94,73126.0,-7.75,-9.71,-9.71,0,*51
1507561373.47,34103,12.94,73124.8,-7.75,-9.71,-9.79,0,*58
1507561374.67,34104,12.94,73118.8,-7.75,-9.79,-9.79,0,*57
1507561375.87,34105,12.94,73120.3,-7.75,-9.79,-9.67,0,*59
1507561377.12,34106,12.94,73128.5,-7.77,-9.67,-9.57,0,*54
1507561378.34,34107,12.94,73122.5,-7.77,-9.71,-9.67,0,*51
1507561379.57,34108,12.94,73116.3,-7.77,-9.71,-9.67,0,*5E
1507561380.8,34109,12.94,73120.8,-7.77,-9.79,-9.71,0,*50
1507561382.0,34110,12.94,73118.8,-7.75,-9.79,-9.67,0,*5D
1507561383.22,34111,12.94,73108.5,-7.77,-9.79,-9.67,0,*5E
1507561384.45,34112,12.94,73112.0,-7.77,-9.71,-9.67,0,*55
1507561385.67,34113,12.94,73116.0,-7.77,-9.79,-9.67,0,*5C
1507561386.9,34114,12.94,73124.3,-7.77,-9.79,-9.67,0,*5B
1507561388.12,34115,12.94,73130.0,-7.77,-9.67,-9.67,0,*55
1507561389.36,34116,12.94,73120.3,-7.77,-9.67,-9.57,0,*55
1507561390.6,34117,12.94,73114.3,-7.77,-9.67,-9.57,0,*54
1507561391.85,34118,12.94,73114.5,-7.77,-9.71,-9.57,0,*5C
1507561393.07,34119,12.94,73106.5,-7.77,-9.67,-9.67,0,*59
1507561394.3,34120,12.94,73102.3,-7.79,-9.71,-9.61,0,*5C
1507561395.54,34121,12.94,73106.8,-7.77,-9.67,-9.57,0,*51
1507561396.75,34122,12.94,73114.5,-7.75,-9.71,-9.67,0,*54
1507561397.95,34123,12.94,73118.0,-7.79,-9.71,-9.71,0,*5E
1507561399.17,34124,12.94,73122.0,-7.77,-9.67,-9.67,0,*57
1507561400.4,34125,12.94,73122.0,-7.77,-9.71,-9.67,0,*51
1507561401.63,34126,12.94,73116.3,-7.77,-9.71,-9.67,0,*52
1507561402.83,34127,12.94,73124.8,-7.79,-9.75,-9.75,0,*5A
1507561404.06,34128,12.94,73128.0,-7.77,-9.71,-9.71,0,*5B
1507561405.28,34129,12.94,73124.8,-7.77,-9.67,-9.67,0,*5A
1507561406.48,34130,12.94,73120.0,-7.79,-9.75,-9.71,0,*58
1507561407.7,34131,12.94,73124.0,-7.77,-9.79,-9.71,0,*5B
1507561408.93,34132,12.94,73120.8,-7.77,-9.79,-9.71,0,*58
1507561410.15,34133,12.94,73118.5,-7.77,-9.79,-9.79,0,*51
1507561411.34,34134,12.94,73126.0,-7.79,-9.89,-9.71,0,*5F
1507561412.57,34135,12.94,73116.0,-7.77,-9.71,-9.67,0,*50
1507561413.77,34136,12.94,73114.0,-7.79,-9.75,-9.75,0,*5A
1507561415.0,34137,12.94,73108.0,-7.79,-9.75,-9.61,0,*5E
1507561416.21,34138,12.94,73108.5,-7.79,-9.83,-9.75,0,*5D
1507561417.46,34139,12.94,73114.0,-7.77,-9.83,-9.67,0,*51
1507561418.66,34140,12.94,73108.0,-7.79,-9.79,-9.67,0,*54
1507561419.9,34141,12.94,73102.8,-7.77,-9.83,-9.71,0,*59
1507561421.09,34142,12.94,73102.0,-7.79,-9.89,-9.75,0,*5A
1507561422.31,34143,12.94,73100.3,-7.79,-9.89,-9.83,0,*52
1507561423.52,34144,12.94,73098.3,-7.79,-9.89,-9.83,0,*55
1507561424.74,34145,12.94,73092.3,-7.79,-9.83,-9.75,0,*57
1507561425.94,34146,12.94,73102.0,-7.79,-9.97,-9.89,0,*52
1507561427.18,34147,12.94,73108.8,-7.77,-9.93,-9.83,0,*53
1507561428.42,34148,12.94,73110.5,-7.79,-9.83,-9.83,0,*53
1507561429.61,34149,12.94,73110.3,-7.79,-9.89,-9.75,0,*51
1507561430.81,34150,12.94,73114.5,-7.79,-9.97,-9.75,0,*56
1507561432.05,34151,12.94,73116.5,-7.79,-9.83,-9.83,0,*5B
1507561433.3,34152,12.94,73118.3,-7.81,-9.83,-9.75,0,*56
1507561434.51,34153,12.94,73110.0,-7.81,-9.89,-9.75,0,*5D
1507561435.74,34154,12.94,73110.8,-7.81,-9.75,-9.71,0,*5D
1507561436.96,34155,12.94,73112.8,-7.81,-9.89,-9.75,0,*5B
1507561438.21,34156,12.94,73110.0,-7.81,-9.83,-9.75,0,*52
1507561439.44,34157,12.94,73114.0,-7.81,-9.75,-9.71,0,*5E
1507561440.64,34158,12.94,73112.5,-7.83,-9.79,-9.79,0,*57
1507561441.86,34159,12.94,73104.5,-7.81,-9.89,-9.71,0,*53
1507561443.11,34160,12.94,73102.8,-7.81,-9.83,-9.75,0,*57
1507561444.36,34161,12.94,73104.0,-7.81,-9.83,-9.75,0,*56
1507561445.56,34162,12.94,73104.0,-7.83,-9.79,-9.79,0,*5E
1507561446.77,34163,12.94,73108.3,-7.83,-9.79,-9.75,0,*53
1507561448.0,34164,12.94,73108.3,-7.81,-9.75,-9.71,0,*5E
1507561449.23,34165,12.94,73110.0,-7.81,-9.75,-9.71,0,*5F
1507561450.46,34166,12.94,73114.5,-7.83,-9.75,-9.61,0,*5F
1507561451.67,34167,12.94,73112.3,-7.83,-9.75,-9.67,0,*58
1507561452.92,34168,12.94,73118.3,-7.81,-9.75,-9.61,0,*53
1507561454.17,34169,12.94,73112.8,-7.81,-9.75,-9.61,0,*52
1507561455.39,34170,12.94,73114.3,-7.83,-9.89,-9.61,0,*5B
1507561456.66,34171,12.94,73106.5,-7.81,-9.83,-9.83,0,*5E
1507561457.86,34172,12.94,73102.3,-7.83,-9.89,-9.75,0,*5C
1507561459.11,34173,12.94,73110.5,-7.81,-9.83,-9.71,0,*51
1507561460.3,34174,12.94,73120.0,-7.83,-9.89,-9.79,0,*56
1507561461.5,34175,12.94,73120.8,-7.83,-9.89,-9.79,0,*57
1507561462.71,34176,12.94,73116.0,-7.83,-9.79,-9.67,0,*54
1507561463.92,34177,12.94,73122.8,-7.83,-9.79,-9.79,0,*5A
1507561465.15,34178,12.94,73120.0,-7.81,-9.75,-9.71,0,*53
1507561466.34,34179,12.94,73116.3,-7.83,-9.89,-9.79,0,*5B
1507561467.54,34180,12.94,73114.3,-7.83,-9.89,-9.79,0,*5D
1507561468.74,34181,12.94,73112.8,-7.83,-9.93,-9.79,0,*57
1507561469.96,34182,12.94,73110.8,-7.85,-9.89,-9.79,0,*59
1507561471.16,34183,12.94,73116.8,-7.83,-9.93,-9.89,0,*5A
1507561472.37,34184,12.94,73114.8,-7.83,-10.01,-9.93,0,*65
1507561473.59,34185,12.94,73116.0,-7.81,-9.97,-9.89,0,*5A
1507561474.79,34186,12.94,73116.8,-7.83,-9.89,-9.89,0,*54
1507561475.99,34187,12.94,73112.8,-7.83,-9.79,-9.75,0,*59
1507561477.19,34188,12.94,73106.0,-7.83,-9.89,-9.89,0,*5A
1507561478.39,34189,12.94,73106.0,-7.83,-9.89,-9.79,0,*54
1507561479.59,34190,12.94,73104.8,-7.83,-9.89,-9.75,0,*50
1507561480.8,34191,12.94,73110.5,-7.85,-9.89,-9.79,0,*5B
1507561482.03,34192,12.94,73108.0,-7.85,-9.79,-9.67,0,*58
1507561483.26,34193,12.94,73100.8,-7.85,-9.79,-9.67,0,*59
1507561484.48,34194,12.94,73096.0,-7.85,-9.93,-9.93,0,*51
1507561485.68,34195,12.94,73114.5,-7.89,-9.93,-9.97,0,*58
1507561486.89,34196,12.94,73116.0,-7.85,-9.89,-9.75,0,*50
1507561488.11,34197,12.94,73120.3,-7.85,-9.89,-9.75,0,*51
1507561489.34,34198,12.94,73118.5,-7.85,-9.79,-9.75,0,*51
1507561490.57,34199,12.94,73120.5,-7.85,-9.79,-9.79,0,*5C
1507561491.79,34200,12.94,73126.8,-7.85,-9.93,-9.75,0,*57
1507561492.99,34201,12.94,73128.8,-7.89,-9.79,-9.75,0,*5E
1507561494.19,34202,12.94,73134.5,-7.89,-9.79,-9.67,0,*5E
1507561495.41,34203,12.94,73128.5,-7.85,-9.75,-9.67,0,*5F
1507561496.61,34204,12.94,73114.5,-7.89,-9.79,-9.67,0,*58
1507561497.84,34205,12.94,73110.5,-7.85,-9.79,-9.67,0,*55
1507561499.04,34206,12.94,73106.3,-7.89,-9.75,-9.75,0,*55
1507561500.26,34207,12.94,73102.3,-7.85,-9.67,-9.67,0,*58
1507561501.46,34208,12.94,73110.0,-7.89,-9.79,-9.67,0,*54
1507561502.69,34209,12.94,73112.8,-7.85,-9.79,-9.75,0,*5A
1507561503.92,34210,12.94,73114.3,-7.85,-9.75,-9.75,0,*5E
1507561505.15,34211,12.94,73114.5,-7.85,-9.79,-9.75,0,*53
1507561506.36,34212,12.94,73110.8,-7.89,-9.97,-9.83,0,*55
1507561507.56,34213,12.94,73104.3,-7.89,-9.97,-9.93,0,*55
1507561508.78,34214,12.94,73108.5,-7.85,-9.93,-9.79,0,*5E
1507561510.0,34215,12.94,73114.3,-7.85,-9.89,-9.89,0,*5B
1507561511.22,34216,12.94,73114.5,-7.85,-9.93,-9.79,0,*5C
1507561512.44,34217,12.94,73112.5,-7.85,-9.89,-9.79,0,*56
1507561513.66,34218,12.94,73108.8,-7.89,-9.79,-9.83,0,*5F
1507561514.89,34219,12.94,73102.3,-7.85,-9.79,-9.75,0,*5B
1507561516.09,34220,12.94,73114.3,-7.89,-9.79,-9.79,0,*51
1507561517.33,34221,12.94,73116.0,-7.89,-9.83,-9.83,0,*50
1507561518.55,34222,12.94,73124.3,-7.89,-9.83,-9.79,0,*56
1507561519.77,34223,12.94,73124.3,-7.85,-9.75,-9.75,0,*5E
1507561520.99,34224,12.94,73126.3,-7.89,-9.83,-9.71,0,*58
1507561522.19,34225,12.94,73114.0,-7.89,-9.79,-9.71,0,*5C
1507561523.42,34226,12.94,73108.3,-7.85,-9.79,-9.67,0,*54
1507561524.64,34227,12.94,73102.8,-7.89,-9.83,-9.71,0,*5B
1507561525.84,34228,12.94,73104.5,-7.89,-9.71,-9.67,0,*5E
1507561527.07,34229,12.94,73104.8,-7.85,-9.75,-9.67,0,*57
1507561528.3,34230,12.94,73106.0,-7.91,-9.71,-9.67,0,*5E
1507561529.54,34231,12.94,73108.8,-7.91,-9.83,-9.71,0,*55
1507561530.77,34232,12.94,73116.3,-7.91,-9.79,-9.67,0,*54
1507561532.0,34233,12.94,73118.5,-7.91,-9.71,-9.67,0,*5D
1507561533.2,34234,12.94,73114.8,-7.89,-9.79,-9.67,0,*5B
1507561534.41,34235,12.94,73114.3,-7.89,-9.83,-9.71,0,*58
1507561535.66,34236,12.94,73114.5,-7.89,-9.83,-9.83,0,*56
1507561536.9,34237,12.94,73112.5,-7.91,-9.83,-9.79,0,*5B
1507561538.13,34238,12.94,73120.0,-7.91,-9.79,-9.79,0,*51
1507561539.35,34239,12.94,73118.0,-7.91,-9.79,-9.79,0,*50
1507561540.58,34240,12.94,73124.3,-7.91,-9.79,-9.79,0,*5E
1507561541.81,34241,12.94,73120.0,-7.91,-9.79,-9.75,0,*53
1507561543.03,34242,12.94,73120.0,-7.91,-9.79,-9.79,0,*5C
1507561544.26,34243,12.94,73124.8,-7.91,-9.79,-9.71,0,*55
1507561545.49,34244,12.94,73124.8,-7.91,-9.79,-9.71,0,*52
1507561546.71,34245,12.94,73130.0,-7.91,-9.79,-9.71,0,*53
1507561547.94,34246,12.94,73128.3,-7.91,-9.79,-9.67,0,*57
1507561549.19,34247,12.94,73128.5,-7.91,-9.83,-9.67,0,*53
1507561550.41,34248,12.94,73130.0,-7.91,-9.79,-9.71,0,*5E
1507561551.66,34249,12.94,73122.8,-7.91,-9.83,-9.71,0,*5A
1507561552.88,34250,12.94,73122.0,-7.91,-9.79,-9.67,0,*50
1507561554.13,34251,12.94,73116.0,-7.91,-9.83,-9.67,0,*54
1507561555.36,34252,12.94,73116.0,-7.91,-9.79,-9.71,0,*55
1507561556.58,34253,12.94,73120.0,-7.91,-9.79,-9.71,0,*54
1507561557.83,34254,12.94,73120.5,-7.91,-9.83,-9.71,0,*56
1507561559.04,34255,12.94,73114.3,-7.93,-9.93,-9.83,0,*59
1507561560.26,34256,12.94,73118.3,-7.91,-9.93,-9.79,0,*5D
1507561561.51,34257,12.94,73118.5,-7.91,-9.83,-9.79,0,*5D
1507561562.72,34258,12.94,73120.0,-7.93,-9.97,-9.83,0,*50
1507561563.97,34259,12.94,73120.3,-7.91,-9.83,-9.79,0,*53
1507561565.18,34260,12.94,73112.0,-7.93,-9.97,-9.83,0,*5B
1507561566.37,34261,12.94,73114.0,-7.93,-9.97,-9.89,0,*50
1507561567.56,34262,12.94,73110.0,-7.93,-9.97,-9.89,0,*53
1507561568.75,34263,12.94,73112.8,-7.93,-10.01,-9.89,0,*65
1507561569.94,34264,12.94,73116.5,-7.93,-9.97,-9.97,0,*5A
1507561571.13,34265,12.94,73122.5,-7.93,-9.97,-9.89,0,*54
1507561572.32,34266,12.94,73118.8,-7.93,-9.97,-9.89,0,*57
1507561573.54,34267,12.94,73114.3,-7.91,-9.97,-9.89,0,*54
1507561574.73,34268,12.94,73114.5,-7.93,-10.01,-9.97,0,*61
1507561575.93,34269,12.94,73112.8,-7.93,-10.01,-9.97,0,*60
1507561577.12,34270,12.94,73116.5,-7.93,-10.01,-9.89,0,*67
1507561578.33,34271,12.94,73110.0,-7.95,-9.89,-9.89,0,*58
1507561579.55,34272,12.94,73104.5,-7.95,-9.97,-9.97,0,*5B
1507561580.77,34273,12.94,73098.3,-7.95,-10.01,-9.97,0,*6D
1507561581.98,34274,12.94,73094.5,-7.93,-10.01,-10.01,0,*5B
1507561583.18,34275,12.94,73092.8,-7.93,-10.09,-10.01,0,*52
1507561584.38,34276,12.94,73094.5,-7.97,-10.05,-10.05,0,*5D
1507561585.62,34277,12.94,73096.8,-7.95,-10.01,-10.01,0,*5E
1507561586.83,34278,12.94,73096.0,-7.95,-9.97,-9.89,0,*5E
1507561588.06,34279,12.94,73100.0,-7.95,-10.01,-9.97,0,*67
1507561589.3,34280,12.94,73100.3,-7.95,-9.97,-9.83,0,*53
1507561590.54,34281,12.94,73096.8,-7.95,-9.89,-9.83,0,*5D
1507561591.75,34282,12.94,73100.8,-7.95,-9.97,-9.89,0,*5B
1507561592.95,34283,12.94,73102.0,-7.97,-10.01,-9.93,0,*64
1507561594.17,34284,12.94,73098.0,-7.95,-9.97,-9.97,0,*52
1507561595.38,34285,12.94,73094.3,-7.95,-9.97,-9.97,0,*53
1507561596.6,34286,12.94,73096.0,-7.95,-9.97,-9.89,0,*5F
1507561597.86,34287,12.94,73102.8,-7.95,-9.83,-9.83,0,*51
1507561599.08,34288,12.94,73102.8,-7.95,-9.89,-9.89,0,*5E
1507561600.32,34289,12.94,73096.5,-7.97,-9.83,-9.83,0,*5D
1507561601.54,34290,12.94,73102.0,-7.95,-10.01,-9.97,0,*60
1507561602.73,34291,12.94,73110.5,-7.97,-9.89,-9.89,0,*54
1507561603.97,34292,12.94,73106.0,-7.95,-9.89,-9.83,0,*5F
1507561605.16,34293,12.94,73098.0,-7.97,-9.93,-9.89,0,*5D
1507561606.4,34294,12.94,73096.5,-7.95,-9.89,-9.83,0,*59
1507561607.61,34295,12.94,73092.0,-7.95,-9.89,-9.89,0,*52
1507561608.8,34296,12.94,73098.5,-7.97,-9.89,-9.89,0,*53
1507561609.99,34297,12.94,73102.5,-7.97,-9.89,-9.89,0,*52
1507561611.25,34298,12.94,73106.5,-7.95,-9.83,-9.83,0,*5F
1507561612.49,34299,12.94,73112.8,-7.95,-9.83,-9.75,0,*57
1507561613.68,34300,12.94,73112.0,-7.97,-9.89,-9.75,0,*5E
1507561614.92,34301,12.94,73112.8,-7.95,-9.83,-9.75,0,*57
1507561616.12,34302,12.94,73116.0,-7.97,-9.79,-9.75,0,*53
1507561617.31,34303,12.94,73114.5,-7.97,-9.89,-9.89,0,*5E
1507561618.51,34304,12.94,73120.3,-7.97,-9.79,-9.75,0,*55
1507561619.7,34305,12.94,73118.0,-7.97,-9.89,-9.75,0,*5B
1507561620.9,34306,12.94,73112.0,-7.97,-9.79,-9.79,0,*5B
1507561622.14,34307,12.94,73122.0,-7.95,-9.83,-9.71,0,*55
1507561623.34,34308,12.94,73118.0,-7.97,-9.89,-9.79,0,*5A
1507561624.53,34309,12.94,73118.0,-7.97,-9.89,-9.75,0,*57
1507561625.73,34310,12.94,73114.0,-7.97,-9.79,-9.79,0,*5C
1507561626.92,34311,12.94,73118.3,-7.97,-9.89,-9.75,0,*5E
1507561628.11,34312,12.94,73118.3,-7.97,-9.89,-9.71,0,*59
1507561629.3,34313,12.94,73120.8,-7.97,-9.93,-9.89,0,*54
1507561630.49,34314,12.94,73110.8,-7.97,-9.93,-9.89,0,*53
1507561631.69,34315,12.94,73104.5,-7.97,-9.93,-9.79,0,*5D
1507561632.9,34316,12.94,73104.3,-7.95,-9.97,-9.89,0,*57
1507561634.09,34317,12.94,73108.8,-7.97,-9.93,-9.89,0,*50
1507561635.32,34318,12.94,73108.3,-7.99,-9.97,-9.93,0,*5E
1507561636.54,34319,12.94,73104.5,-7.99,-9.97,-9.97,0,*5B
1507561637.73,34320,12.94,73106.8,-7.97,-9.93,-9.89,0,*54
1507561638.92,34321,12.94,73106.3,-7.97,-9.93,-9.89,0,*55
1507561640.12,34322,12.94,73118.0,-7.97,-9.93,-9.89,0,*56
1507561641.31,34323,12.94,73108.8,-7.97,-9.93,-9.79,0,*58
1507561642.51,34324,12.94,73116.5,-7.97,-9.93,-9.79,0,*5F
1507561643.73,34325,12.94,73118.0,-7.99,-9.93,-9.93,0,*54
1507561644.98,34326,12.94,73112.8,-7.99,-9.93,-9.83,0,*56
1507561646.23,34327,12.94,73116.0,-7.99,-9.83,-9.79,0,*53
1507561647.47,34328,12.94,73116.8,-7.99,-9.83,-9.79,0,*5C
1507561648.75,34329,12.94,73116.0,-7.99,-9.83,-9.83,0,*58
1507561649.97,34330,12.94,73120.8,-7.99,-9.97,-9.79,0,*50
1507561651.22,34331,12.94,73122.8,-7.99,-9.83,-9.79,0,*54
1507561652.47,34332,12.94,73124.8,-7.99,-9.83,-9.79,0,*57
1507561653.71,34333,12.94,73118.8,-7.99,-9.83,-9.75,0,*5A
1507561654.96,34334,12.94,73118.8,-7.99,-9.83,-9.75,0,*5D
1507561656.19,34335,12.94,73114.3,-7.99,-9.79,-9.79,0,*55
1507561657.42,34336,12.94,73108.3,-7.99,-9.79,-9.75,0,*5A
1507561658.67,34337,12.94,73106.5,-7.99,-9.83,-9.79,0,*52
1507561659.92,34338,12.94,73100.3,-7.99,-9.83,-9.75,0,*51
1507561661.12,34339,12.94,73098.0,-8.01,-9.79,-9.79,0,*57
1507561662.35,34340,12.94,73108.5,-7.99,-9.79,-9.75,0,*5B
1507561663.57,34341,12.94,73104.8,-7.99,-9.97,-9.93,0,*52
1507561664.82,34342,12.94,73106.8,-7.99,-9.93,-9.83,0,*54
1507561666.07,34343,12.94,73100.8,-7.99,-9.93,-9.83,0,*55
1507561667.29,34344,12.94,73104.5,-7.99,-9.93,-9.93,0,*53
1507561668.52,34345,12.94,73096.8,-7.99,-9.93,-9.79,0,*56
1507561669.74,34346,12.94,73100.0,-8.01,-9.93,-9.83,0,*5E
1507561670.98,34347,12.94,73104.5,-7.99,-9.93,-9.83,0,*51
1507561672.21,34348,12.94,73104.3,-7.99,-9.93,-9.75,0,*57
1507561673.43,34349,12.94,73096.3,-7.99,-9.93,-9.79,0,*5A
1507561674.63,34350,12.94,73094.3,-8.01,-9.93,-9.79,0,*5C
1507561675.85,34351,12.94,73092.0,-7.99,-9.93,-9.79,0,*53
1507561677.1,34352,12.94,73098.5,-7.99,-9.93,-9.83,0,*55
1507561678.33,34353,12.94,73100.8,-7.99,-9.79,-9.79,0,*55
1507561679.55,34354,12.94,73100.0,-8.01,-9.83,-9.75,0,*55
1507561680.77,34355,12.94,73102.5,-8.01,-9.83,-9.79,0,*58
1507561681.97,34356,12.94,73100.3,-8.01,-9.79,-9.75,0,*52
1507561683.17,34357,12.94,73096.0,-8.01,-9.79,-9.75,0,*53
1507561684.39,34358,12.94,73094.3,-8.01,-9.83,-9.75,0,*59
1507561685.67,34359,12.94,73098.0,-7.99,-9.83,-9.83,0,*5F
1507561686.89,34360,12.94,73098.0,-8.01,-9.83,-9.79,0,*5E
1507561688.08,34361,12.94,73098.0,-8.01,-9.93,-9.79,0,*5E
1507561689.3,34362,12.94,73086.3,-8.01,-9.83,-9.79,0,*5C
1507561690.55,34363,12.94,73096.8,-8.01,-9.83,-9.83,0,*58
1507561691.74,34364,12.94,73096.3,-8.01,-9.93,-9.79,0,*5B
1507561692.99,34365,12.94,73094.3,-8.01,-9.83,-9.83,0,*5E
1507561694.19,34366,12.94,73098.8,-8.01,-9.93,-9.79,0,*59
1507561695.41,34367,12.94,73100.5,-8.01,-9.93,-9.83,0,*5D
1507561696.6,34368,12.94,73100.5,-8.01,-9.93,-9.79,0,*57
1507561697.84,34369,12.94,73104.5,-8.03,-9.89,-9.83,0,*5A
1507561699.07,34370,12.94,73106.5,-8.01,-9.83,-9.79,0,*5F
1507561700.27,34371,12.94,73108.8,-8.01,-9.79,-9.79,0,*5B
1507561701.49,34372,12.94,73094.0,-8.01,-9.83,-9.79,0,*5D
1507561702.71,34373,12.94,73094.8,-8.03,-9.79,-9.79,0,*5B
1507561703.98,34374,12.94,73096.0,-8.03,-9.83,-9.83,0,*5C